Location: Abundant Grace Fellowship
(35.0349°N, 90.0924°W)
Time: 08:33:48
(UTC+00:00)

BlueWalker 3 - Pass Details

Date: 18 January 2026
Orbit: 450 x 461 km, 53.2° (Epoch: 10 February)

Event Time Altitude Azimuth Distance (km) Brightness Sun altitude
Rises 00:17:08 0° 187° (S) 2,439 5.8 -12.9°
Reaches altitude 10° 00:19:49 10° 166° (SSE) 1,571 4.5 -13.4°
Maximum altitude 00:22:05 16° 126° (SE) 1,242 3.6 -13.9°
Enters shadow 00:22:21 16° 120° (ESE) 1,247 3.5 -13.9°
